PBO Station Position Time Series. Reference Frame : NAM14
Format Version,1.1.1
4-character ID,P663
Station name,SHWhalebakCN2007
Begin Date, 2007-08-04
End Date, 2023-06-26
Release Date, 2023-06-27
Reference position, 41.5319397397 North Latitude, -122.1529232887 East Longitude, 2238.01558 meters elevation,
Date, North (mm), East (mm), Vertical (mm), North Std. Deviation (mm), East Std. Deviation (mm),              Vertical Std. Deviation (mm), Quality,
2007-08-04,0.00, 0.00, 0.00, 2.11, 1.69, 7.56, repro,
2007-08-05,-2.60, 0.56, 6.64, 2.13, 1.70, 7.70, repro,
2007-08-06,-3.01, -1.39, 8.44, 2.17, 1.75, 7.96, repro,
2007-08-07,-2.60, 0.13, 1.17, 2.21, 1.79, 8.03, repro,
2007-08-08,-1.45, 0.42, -2.12, 2.12, 1.70, 7.70, repro,
2007-08-09,-2.30, -2.28, 4.38, 2.11, 1.69, 7.60, repro,
2007-08-10,-0.74, -1.74, 10.02, 2.12, 1.70, 7.67, repro,
2007-08-11,-2.29, -0.22, 3.25, 2.17, 1.74, 7.88, repro,
2007-08-12,-3.75, 1.62, -7.60, 2.14, 1.73, 7.93, repro,
2007-08-13,-2.31, 2.22, -17.39, 2.12, 1.69, 7.66, repro,
2007-08-14,-3.53, 2.65, -13.37, 2.23, 1.85, 8.17, repro,
2007-08-15,0.22, 0.74, 0.08, 2.30, 1.92, 8.30, repro,
2007-08-16,1.24, -3.82, 5.72, 2.21, 1.80, 8.12, repro,
2007-08-17,-2.23, -2.45, -3.56, 2.23, 1.77, 8.02, repro,
2007-08-18,-1.29, 1.31, -7.82, 2.31, 1.88, 8.78, repro,
2007-08-19,-0.84, 1.11, 7.38, 2.30, 1.86, 8.41, repro,
2007-08-20,-5.12, 1.76, -3.27, 2.20, 1.75, 7.96, repro,
2007-08-21,-2.76, -1.81, -0.80, 2.26, 1.81, 8.17, repro,
2007-08-22,-3.55, -0.56, 3.76, 2.27, 1.82, 8.21, repro,
2007-08-23,-2.80, -0.50, 4.14, 2.21, 1.75, 7.95, repro,
2007-08-24,-2.16, 0.27, 0.61, 2.27, 1.82, 8.17, repro,
2007-08-25,-3.55, 0.48, -4.04, 2.21, 1.79, 8.02, repro,
2007-08-26,-1.27, -0.31, 6.29, 2.28, 1.87, 8.44, repro,
2007-08-27,-3.11, -1.21, 4.82, 2.25, 1.84, 8.21, repro,
2007-08-28,-3.05, 0.00, -1.64, 2.23, 1.84, 8.32, repro,
2007-08-29,-1.23, 1.44, -8.59, 2.22, 1.79, 8.07, repro,
2007-08-30,-4.19, 0.74, -3.54, 2.24, 1.79, 8.12, repro,
2007-08-31,6.35, -0.21, 5.95, 2.29, 1.88, 8.59, repro,
2007-09-01,-1.42, -2.72, 13.96, 2.25, 1.81, 8.17, repro,
2007-09-02,-3.34, -1.23, 0.30, 2.21, 1.81, 8.11, repro,
2007-09-03,-1.94, -0.74, 0.60, 2.20, 1.77, 7.98, repro,
2007-09-04,-0.56, -1.03, -4.93, 2.26, 1.85, 8.34, repro,
2007-09-05,-3.55, -1.27, -0.30, 2.21, 1.76, 7.96, repro,
2007-09-06,-1.28, -0.70, -1.02, 2.23, 1.78, 8.06, repro,
2007-09-07,-2.58, -0.84, 2.74, 2.26, 1.82, 8.13, repro,
2007-09-08,-2.31, -1.31, -1.56, 2.38, 2.00, 8.95, repro,
2007-09-09,-2.19, 0.76, -6.01, 2.30, 1.88, 8.49, repro,
2007-09-10,-2.54, 0.42, -6.78, 2.23, 1.79, 8.01, repro,
2007-09-11,-0.77, -0.68, -0.32, 2.34, 1.91, 8.61, repro,
2007-09-12,-2.88, -0.84, 2.41, 2.27, 1.82, 8.24, repro,
2007-09-13,-3.92, 1.71, -4.56, 2.34, 1.82, 8.29, repro,
2007-09-14,-2.44, -1.40, -0.72, 2.31, 1.88, 8.56, repro,
2007-09-15,-2.67, 0.49, 0.99, 2.85, 2.26, 10.55, repro,
2007-09-16,-2.55, -1.59, 6.31, 2.24, 1.81, 8.11, repro,
2007-09-17,-1.65, -0.12, 8.29, 2.31, 1.87, 8.57, repro,
2007-09-18,-2.72, -1.49, 0.18, 2.22, 1.83, 8.08, repro,
2007-09-19,-2.65, 1.06, -6.98, 2.11, 1.70, 7.67, repro,
2007-09-20,-3.40, -3.98, 5.99, 2.17, 1.72, 7.83, repro,
2007-09-21,-2.77, -0.69, 12.71, 2.29, 1.79, 8.07, repro,
2007-09-22,-3.58, -0.16, 8.03, 2.29, 1.78, 8.12, repro,
2007-09-23,-3.56, 0.86, -1.11, 2.21, 1.76, 8.11, repro,
2007-09-24,-1.95, 0.59, -1.58, 2.24, 1.71, 7.77, repro,
2007-09-25,-4.06, -0.07, -6.65, 2.21, 1.75, 8.02, repro,
2007-09-26,-3.71, 1.29, 1.20, 2.19, 1.71, 7.75, repro,
2007-09-27,-3.72, -0.12, 5.55, 2.18, 1.73, 7.97, repro,
2007-09-28,-1.05, -0.57, 5.36, 2.26, 1.82, 8.38, repro,
2007-09-29,-3.22, -0.67, -4.56, 2.26, 1.86, 8.24, repro,
2007-09-30,-1.66, -0.23, 0.92, 2.28, 1.85, 8.25, repro,
2007-10-01,-4.35, 0.33, 5.76, 2.26, 1.85, 8.44, repro,
2007-10-02,-3.17, -0.58, 13.62, 2.36, 1.90, 8.48, repro,
2007-10-03,-2.79, 0.55, 6.11, 2.24, 1.76, 8.11, repro,
2007-10-04,-2.86, 0.29, -0.22, 2.31, 1.87, 8.58, repro,
2007-10-05,-3.92, 0.07, 5.78, 2.24, 1.83, 8.25, repro,
2007-10-06,-5.06, -0.89, -1.04, 2.21, 1.84, 8.21, repro,
2007-10-07,-3.62, 0.53, -4.05, 2.20, 1.76, 8.08, repro,
2007-10-08,-2.37, 0.33, -3.52, 2.46, 1.89, 8.72, repro,
2007-10-09,0.97, 0.66, 18.90, 2.33, 1.89, 8.52, repro,
2007-10-10,-2.82, -0.13, -4.19, 2.36, 1.84, 8.69, repro,
2007-10-11,-1.18, 1.71, -3.79, 2.20, 1.78, 8.00, repro,
2007-10-12,-4.15, 1.39, 0.16, 2.24, 1.83, 8.28, repro,
2007-10-13,-2.73, -0.39, 5.75, 2.29, 1.82, 8.11, repro,
2007-10-14,-1.87, 0.34, 3.04, 2.22, 1.78, 8.01, repro,
2007-10-15,0.85, -0.68, 8.11, 2.21, 1.78, 7.98, repro,
2007-10-16,-2.55, -0.20, 7.58, 2.17, 1.73, 7.87, repro,
2007-10-17,-3.99, 0.88, 0.07, 2.14, 1.73, 7.77, repro,
2007-10-18,-1.01, 3.30, 5.27, 2.37, 1.89, 8.35, repro,
2007-10-19,-2.75, -0.41, 9.22, 2.55, 2.17, 9.90, repro,
2007-10-20,-3.93, -0.63, 9.90, 2.13, 1.70, 7.65, repro,
2007-10-21,-4.02, 1.03, -7.81, 2.15, 1.71, 7.83, repro,
2007-10-22,-4.42, 2.59, -11.29, 2.22, 1.78, 8.10, repro,
2007-10-23,-2.81, 3.20, -5.27, 2.23, 1.80, 8.13, repro,
2007-10-24,1.31, 4.44, -8.11, 2.21, 1.79, 8.02, repro,
2007-10-25,-3.33, -0.98, -4.43, 2.19, 1.75, 7.91, repro,
2007-10-26,-4.87, 2.03, -2.82, 2.28, 1.89, 8.38, repro,
2007-10-27,-1.03, -0.39, -2.17, 2.23, 1.80, 8.32, repro,
2007-10-28,-3.04, 1.41, -9.93, 2.15, 1.74, 7.85, repro,
2007-10-29,-2.29, -0.08, -2.87, 2.15, 1.75, 7.93, repro,
2007-10-30,-4.71, 0.38, -7.00, 2.16, 1.74, 7.91, repro,
2007-10-31,-3.57, 0.89, -8.29, 2.36, 1.97, 9.03, repro,
2007-11-01,-3.29, 0.83, -5.08, 2.20, 1.77, 8.02, repro,
2007-11-02,-2.81, -0.94, -3.63, 2.47, 2.07, 9.13, repro,
2007-11-03,-3.78, 2.38, -8.51, 2.54, 2.14, 9.55, repro,
2007-11-04,-4.46, 0.40, -7.69, 2.34, 1.97, 8.71, repro,
2007-11-05,-1.64, 1.32, -7.98, 2.10, 1.68, 7.50, repro,
2007-11-06,-1.74, 1.41, -12.12, 2.13, 1.68, 7.55, repro,
2007-11-07,-2.48, 0.35, -7.11, 2.19, 1.79, 8.14, repro,
2007-11-08,-2.48, 0.18, -7.08, 2.21, 1.78, 8.01, repro,
2007-11-09,-3.44, -0.94, -9.50, 2.14, 1.71, 7.64, repro,
2007-11-10,-2.80, 0.57, -0.42, 2.09, 1.68, 7.54, repro,
2007-11-11,-5.91, 2.69, -10.26, 2.13, 1.71, 7.74, repro,
2007-11-12,-1.53, 1.39, -6.67, 2.15, 1.72, 7.81, repro,
2007-11-13,-2.00, -0.09, -0.51, 2.14, 1.73, 7.84, repro,
2007-11-14,-2.39, 0.77, -10.30, 2.10, 1.66, 7.48, repro,
2007-11-15,-1.88, 2.01, -4.24, 2.10, 1.68, 7.54, repro,
2007-11-16,-0.46, 1.64, -8.50, 2.11, 1.68, 7.51, repro,
2007-11-17,-1.15, -1.01, 2.75, 2.16, 1.72, 7.83, repro,
2007-11-18,-0.37, 0.11, 0.23, 2.16, 1.75, 7.96, repro,
2007-11-19,-3.18, -0.55, -7.64, 2.15, 1.74, 7.89, repro,
2007-11-20,-3.68, 0.20, -10.00, 2.13, 1.74, 7.78, repro,
2007-11-21,-1.48, 0.54, -7.97, 2.10, 1.70, 7.58, repro,
2007-11-22,-1.31, -0.25, -18.01, 2.25, 1.84, 8.34, repro,
2007-11-23,-0.27, -0.18, -11.24, 2.16, 1.78, 7.83, repro,
2007-11-24,-1.15, -0.24, -9.69, 2.13, 1.72, 7.59, repro,
2007-11-25,0.71, 0.03, -10.68, 2.52, 2.32, 9.74, repro,
2007-11-26,-0.92, 2.41, -18.92, 2.15, 1.78, 7.81, repro,
2007-11-27,-2.20, 1.90, -12.71, 2.13, 1.73, 7.74, repro,
2007-11-28,-1.03, -0.45, -15.31, 2.15, 1.70, 7.71, repro,
2007-11-29,-2.52, -0.47, -10.09, 2.14, 1.73, 7.70, repro,
2007-11-30,-0.88, 0.01, -11.70, 2.17, 1.78, 7.81, repro,
2007-12-01,-1.68, 0.69, -5.64, 2.13, 1.77, 7.85, repro,
2007-12-02,0.05, 2.27, 2.98, 2.15, 1.80, 8.00, repro,
2007-12-03,3.44, 1.99, 17.83, 2.31, 1.90, 8.44, repro,
2007-12-04,-1.10, -1.30, -12.73, 2.21, 1.84, 8.17, repro,
2007-12-05,-2.25, 0.23, -9.38, 2.22, 1.83, 8.06, repro,
2007-12-06,-1.81, 1.25, -15.59, 2.15, 1.78, 7.87, repro,
2007-12-07,-1.66, 4.61, -19.01, 2.22, 1.85, 8.26, repro,
2007-12-08,-3.09, -0.35, -15.35, 2.15, 1.77, 7.90, repro,
2007-12-09,-2.46, -0.95, -7.74, 2.31, 1.88, 8.41, repro,
2007-12-10,-1.41, 0.13, -9.79, 2.22, 1.85, 8.05, repro,
2007-12-11,-0.46, 0.45, -14.78, 2.18, 1.81, 7.94, repro,
2007-12-12,-1.20, -0.24, -19.58, 2.20, 1.76, 8.01, repro,
2007-12-13,-1.86, -0.13, -15.17, 2.19, 1.77, 7.85, repro,
2007-12-14,-1.98, 0.95, -8.91, 2.20, 1.72, 7.85, repro,
2007-12-15,0.17, 0.28, -3.60, 2.25, 1.77, 7.95, repro,
2007-12-16,0.25, 0.12, -9.61, 2.15, 1.70, 7.71, repro,
2007-12-17,0.43, 0.77, -4.70, 2.21, 1.76, 7.88, repro,
2007-12-18,-0.47, 0.30, 8.77, 2.21, 1.74, 7.92, repro,
2007-12-19,-1.07, 2.24, -4.85, 2.17, 1.76, 7.88, repro,
2007-12-20,-0.48, 0.19, -9.37, 2.25, 1.80, 8.10, repro,
2007-12-21,-2.56, -0.32, -11.51, 2.22, 1.83, 8.23, repro,
2007-12-22,-0.53, 1.99, -21.25, 2.20, 1.77, 8.00, repro,
2007-12-23,-0.38, 1.39, -16.88, 2.20, 1.81, 8.00, repro,
2007-12-24,-1.73, 2.53, -22.41, 2.23, 1.81, 8.11, repro,
2007-12-25,-0.83, 1.69, -13.85, 2.22, 1.78, 8.14, repro,
2007-12-26,-4.53, 1.50, -4.37, 2.21, 1.78, 8.10, repro,
2007-12-27,-3.63, 3.20, -10.91, 2.25, 1.80, 8.32, repro,
2007-12-28,-5.93, 1.26, -18.07, 2.27, 1.83, 8.35, repro,
2007-12-29,-3.25, 1.07, -3.66, 2.45, 2.01, 9.19, repro,
2007-12-30,-2.12, 0.28, -6.86, 2.31, 1.86, 8.58, repro,
2007-12-31,-2.51, 2.26, -18.96, 2.32, 1.88, 8.55, repro,
2008-01-01,0.63, -0.17, -11.18, 2.18, 1.72, 7.79, repro,
2008-01-02,1.57, -3.56, -6.06, 2.18, 1.69, 7.71, repro,
2008-01-03,-3.05, -1.22, 9.15, 2.23, 1.75, 7.94, repro,
2008-01-04,-4.63, -0.28, -9.26, 2.22, 1.75, 7.99, repro,
2008-01-05,-2.25, -1.23, -1.37, 2.13, 1.66, 7.61, repro,
2008-01-06,-0.48, -0.08, -1.13, 2.14, 1.66, 7.63, repro,
2008-01-07,-1.53, 2.71, -6.05, 2.26, 1.80, 8.07, repro,
2008-01-08,-1.50, 2.20, 3.37, 2.27, 1.79, 8.18, repro,
2008-01-09,-1.84, 0.97, -11.17, 2.20, 1.70, 7.81, repro,
2008-01-10,-0.56, 0.53, -7.66, 2.25, 1.83, 8.29, repro,
2008-01-11,-1.21, 0.54, -8.31, 2.17, 1.73, 7.81, repro,
2008-01-12,-1.77, 2.14, -11.87, 2.18, 1.74, 8.04, repro,
2008-01-13,-1.15, 2.03, -23.47, 2.16, 1.74, 7.88, repro,
2008-01-14,-1.25, 3.26, -22.22, 2.19, 1.76, 8.03, repro,
2008-01-15,-1.75, 0.80, -16.29, 2.18, 1.76, 8.08, repro,
2008-01-16,-1.51, 1.41, -19.99, 2.22, 1.74, 7.77, repro,
2008-01-17,-3.98, 1.21, -14.18, 2.16, 1.69, 7.71, repro,
2008-01-18,-1.22, 1.12, -15.92, 2.24, 1.84, 8.51, repro,
2008-01-19,-0.60, 2.79, -20.07, 2.21, 1.79, 8.11, repro,
2008-01-20,-2.06, 1.91, -13.99, 2.29, 1.81, 8.14, repro,
2008-01-21,-1.38, 1.35, -19.69, 2.12, 1.69, 7.65, repro,
2008-01-22,-1.05, -0.67, -20.64, 2.17, 1.73, 7.75, repro,
2008-01-23,0.02, 2.13, -22.17, 2.34, 1.86, 8.42, repro,
2008-01-24,-0.45, 2.43, -15.19, 2.19, 1.74, 7.84, repro,
2008-01-25,0.83, 3.40, -13.45, 2.14, 1.70, 7.82, repro,
2008-01-26,-2.63, 6.30, 10.36, 2.23, 1.73, 7.89, repro,
2008-01-27,1.62, 1.05, 4.12, 2.17, 1.72, 7.91, repro,
2008-01-28,-1.39, 3.39, -12.67, 2.18, 1.72, 7.81, repro,
2008-01-29,-0.78, 2.68, -10.95, 2.29, 1.91, 8.41, repro,
2008-01-30,-2.19, 2.91, -21.14, 2.31, 1.88, 8.58, repro,
2008-01-31,-0.98, 2.48, -18.73, 2.26, 1.83, 8.52, repro,
2008-02-01,-1.88, 3.00, -22.70, 2.30, 1.88, 8.50, repro,
2008-02-02,-1.64, 3.54, -16.48, 2.18, 1.74, 8.04, repro,
2008-02-03,-1.31, 4.20, -11.03, 2.29, 1.81, 8.18, repro,
2008-02-04,-3.64, 4.75, -26.61, 2.22, 1.87, 8.71, repro,
2008-02-05,-2.76, 4.65, -24.03, 2.24, 1.88, 8.55, repro,
2008-02-06,-2.04, 4.37, -26.31, 2.22, 1.82, 8.24, repro,
2008-02-07,-2.42, 3.80, -24.29, 2.31, 1.89, 8.75, repro,
2008-02-08,-0.79, 3.40, -26.20, 2.21, 1.79, 8.22, repro,
2008-02-09,-2.47, 2.11, -8.65, 3.21, 2.69, 11.71, repro,
2008-02-10,-1.65, 3.38, -22.12, 2.13, 1.71, 7.76, repro,
2008-02-11,-3.14, 2.78, -19.20, 2.18, 1.78, 8.16, repro,
2008-02-12,-1.39, 3.68, -18.03, 2.22, 1.73, 7.90, repro,
2008-02-13,-2.90, 2.73, -16.08, 2.16, 1.73, 7.93, repro,
2008-02-14,-2.71, 1.48, -18.49, 2.17, 1.75, 7.98, repro,
2008-02-15,-1.59, 3.40, -25.58, 2.23, 1.76, 7.94, repro,
2008-02-16,-2.25, 5.14, -21.40, 2.20, 1.80, 8.09, repro,
2008-02-17,-3.39, 1.94, -13.64, 2.15, 1.71, 7.81, repro,
2008-02-18,-0.85, 3.58, -18.75, 2.30, 1.80, 8.15, repro,
2008-02-19,-2.81, 3.79, -16.07, 2.20, 1.79, 7.88, repro,
2008-02-20,-2.06, 3.48, -21.60, 2.23, 1.80, 8.07, repro,
2008-02-21,-0.87, 3.34, -10.06, 2.12, 1.70, 7.73, repro,
2008-02-22,-2.47, 2.65, -11.37, 2.21, 1.74, 7.86, repro,
2008-02-23,-1.42, 2.26, -13.44, 2.26, 1.75, 7.90, repro,
2008-02-24,1.46, -0.47, 15.70, 2.21, 1.75, 8.07, repro,
2008-02-25,-2.71, 3.35, -13.07, 2.19, 1.75, 8.04, repro,
2008-02-26,-1.68, 3.86, -30.26, 2.20, 1.72, 7.87, repro,
2008-02-27,-1.20, 5.29, -31.43, 2.24, 1.83, 8.19, repro,
2008-02-28,-0.76, 4.17, -25.68, 2.25, 1.78, 8.04, repro,
2008-02-29,-1.19, 1.55, -9.19, 2.26, 1.77, 8.12, repro,
2008-03-01,-1.51, 4.30, -29.36, 2.20, 1.75, 7.96, repro,
2008-03-02,-3.00, 4.32, -26.31, 2.29, 1.86, 8.41, repro,
2008-03-03,-2.12, 4.43, -28.00, 2.20, 1.77, 7.93, repro,
2008-03-04,-2.41, 3.33, -20.94, 2.17, 1.75, 7.96, repro,
2008-03-05,-3.15, 2.99, -14.32, 2.22, 1.84, 8.20, repro,
2008-03-06,-2.91, 3.18, -21.76, 2.18, 1.75, 8.09, repro,
2008-03-07,-2.84, 2.42, -17.10, 2.19, 1.72, 7.94, repro,
2008-03-08,-3.36, 3.87, -23.56, 2.18, 1.71, 7.79, repro,
2008-03-09,-2.55, 3.53, -23.53, 2.14, 1.71, 7.75, repro,
2008-03-10,-0.98, 2.44, -24.62, 2.22, 1.75, 7.92, repro,
2008-03-11,-1.86, 2.64, -18.56, 2.20, 1.77, 8.15, repro,
2008-03-12,-3.61, 2.81, -22.54, 2.16, 1.72, 7.95, repro,
2008-03-13,-3.32, 2.51, -10.88, 2.22, 1.77, 8.18, repro,
2008-03-14,-2.99, 0.98, -13.48, 2.15, 1.71, 7.78, repro,
2008-03-15,-1.77, 2.15, -21.45, 2.19, 1.73, 7.78, repro,
2008-03-16,-3.11, 1.81, -16.69, 2.22, 1.76, 7.96, repro,
2008-03-17,-4.08, 2.54, -15.51, 2.36, 1.92, 8.74, repro,
2008-03-18,-2.86, 3.73, -24.69, 2.29, 1.81, 8.30, repro,
2008-03-19,-4.18, 3.92, -25.91, 2.20, 1.73, 7.93, repro,
2008-03-20,-3.17, 3.46, -26.15, 2.26, 1.83, 8.38, repro,
2008-03-21,-1.25, 2.25, -24.73, 2.21, 1.75, 7.88, repro,
2008-03-22,-0.89, 3.62, -29.76, 2.18, 1.75, 7.96, repro,
2008-03-23,-2.75, 2.49, -26.84, 2.20, 1.77, 8.10, repro,
2008-03-24,-3.32, 1.38, -21.78, 2.21, 1.77, 8.22, repro,
2008-03-25,-4.77, 2.22, -21.80, 2.22, 1.79, 8.11, repro,
2008-03-26,-2.76, 1.88, -21.99, 2.29, 1.82, 8.22, repro,
2008-03-27,-2.51, 1.56, -24.21, 2.22, 1.83, 8.20, repro,
2008-03-28,1.02, 3.18, -23.49, 2.33, 1.85, 8.48, repro,
2008-03-29,-2.62, 2.64, -20.53, 2.22, 1.75, 8.01, repro,
2008-03-30,-3.03, 2.37, -20.08, 2.20, 1.72, 7.90, repro,
2008-03-31,-0.90, 3.77, -23.18, 2.14, 1.69, 7.72, repro,
2008-04-01,-1.79, 1.82, -14.81, 2.14, 1.69, 7.80, repro,
2008-04-02,-2.12, 3.47, -21.61, 2.22, 1.71, 7.90, repro,
2008-04-03,-2.92, 4.78, -26.84, 2.25, 1.79, 8.16, repro,
2008-04-04,-1.87, 3.29, -27.27, 2.17, 1.69, 7.84, repro,
2008-04-05,-2.40, 2.40, -16.25, 2.16, 1.68, 7.76, repro,
2008-04-06,-2.24, 1.94, -16.61, 2.17, 1.75, 8.11, repro,
2008-04-07,-2.94, 3.05, -21.46, 2.17, 1.72, 7.98, repro,
2008-04-08,-3.76, 2.18, -25.20, 2.26, 1.80, 8.34, repro,
2008-04-09,-3.53, 2.44, -14.69, 2.14, 1.68, 7.71, repro,
2008-04-10,-1.57, 3.30, -22.85, 2.15, 1.67, 7.67, repro,
2008-04-11,-2.56, 3.70, -23.75, 2.28, 1.77, 8.16, repro,
2008-04-12,-2.76, 2.34, -17.39, 2.25, 1.80, 8.30, repro,
2008-04-13,-3.71, 2.47, -16.73, 2.21, 1.79, 8.22, repro,
2008-04-14,-2.17, 1.13, -21.18, 2.16, 1.70, 7.85, repro,
2008-04-15,-3.34, 0.61, -10.98, 2.38, 1.86, 8.51, repro,
2008-04-16,-3.08, 2.54, -16.27, 2.21, 1.77, 8.14, repro,
2008-04-17,-4.20, 0.73, -12.96, 2.17, 1.75, 8.09, repro,
2008-04-18,-3.45, 2.46, -18.51, 2.20, 1.75, 8.19, repro,
2008-04-19,-4.24, 0.22, -18.27, 2.22, 1.71, 7.89, repro,
2008-04-20,-3.18, -0.59, -10.81, 2.19, 1.71, 7.93, repro,
2008-04-21,-2.95, 1.22, -16.90, 2.21, 1.70, 7.93, repro,
2008-04-22,-2.52, 0.67, -14.74, 2.18, 1.76, 8.18, repro,
2008-04-23,-1.77, 1.24, -24.23, 2.26, 1.80, 8.23, repro,
2008-04-24,-3.64, 0.56, -13.49, 2.20, 1.73, 8.02, repro,
2008-04-25,-4.54, 1.30, -22.85, 2.21, 1.77, 8.09, repro,
2008-04-26,-2.21, 3.28, -32.43, 2.36, 1.86, 8.48, repro,
2008-04-27,-3.75, -0.07, -20.07, 2.33, 1.82, 8.55, repro,
2008-04-28,-4.45, -0.20, -16.43, 2.27, 1.75, 8.04, repro,
2008-04-29,-3.77, -0.99, -11.02, 2.33, 1.75, 8.25, repro,
2008-04-30,-4.75, -1.39, -8.98, 2.30, 1.83, 8.46, repro,
2008-05-01,-3.53, -0.24, -15.08, 2.20, 1.71, 7.86, repro,
2008-05-02,-3.90, -0.29, -16.16, 2.22, 1.77, 8.09, repro,
2008-05-03,-3.59, 0.20, -19.48, 2.16, 1.68, 7.72, repro,
2008-05-04,-3.33, -0.91, -15.75, 2.18, 1.68, 7.79, repro,
2008-05-05,-3.32, 0.01, -18.07, 2.26, 1.80, 8.33, repro,
2008-05-06,-2.35, -1.95, -13.94, 2.21, 1.74, 7.99, repro,
2008-05-07,-5.47, -0.38, -13.75, 2.22, 1.74, 8.02, repro,
2008-05-08,-3.36, -0.16, -16.98, 2.17, 1.71, 7.91, repro,
2008-05-09,-3.96, -0.16, -14.18, 2.24, 1.73, 7.94, repro,
2008-05-10,-4.80, 0.84, -13.19, 2.22, 1.72, 8.15, repro,
2008-05-11,-5.01, 0.34, -14.80, 2.20, 1.71, 7.98, repro,
2008-05-12,-3.53, 0.58, -13.13, 2.22, 1.72, 7.85, repro,
2008-05-13,-4.50, 0.97, -12.35, 2.17, 1.69, 7.76, repro,
2008-05-14,-4.99, -0.82, -11.24, 2.18, 1.72, 7.80, repro,
2008-05-15,-3.58, -3.76, -21.50, 2.19, 1.71, 7.93, repro,
2008-05-16,-2.45, -0.78, -15.86, 2.19, 1.69, 7.97, repro,
2008-05-17,-4.34, -0.33, -16.56, 2.19, 1.74, 8.08, repro,
2008-05-18,-4.42, 0.70, -16.66, 2.23, 1.75, 8.06, repro,
2008-05-19,-2.80, 0.49, -15.65, 2.13, 1.68, 7.76, repro,
2008-05-20,-4.68, -0.05, -6.56, 2.22, 1.72, 7.96, repro,
2008-05-21,-4.87, 0.92, -12.12, 2.18, 1.69, 7.92, repro,
2008-05-22,-4.87, 0.87, -1.97, 2.17, 1.74, 8.03, repro,
2008-05-23,-4.15, 0.22, -8.22, 2.24, 1.78, 8.31, repro,
2008-05-24,-2.82, -1.13, -7.46, 2.37, 1.89, 8.77, repro,
2008-05-25,-2.36, 1.83, -22.14, 2.20, 1.72, 7.93, repro,
2008-05-26,-2.62, 0.89, -10.09, 2.20, 1.75, 8.05, repro,
2008-05-27,-2.83, -0.28, -5.72, 2.18, 1.74, 8.14, repro,
2008-05-28,-4.85, 2.71, -24.01, 2.22, 1.75, 8.03, repro,
2008-05-29,-7.39, 3.62, -20.57, 2.22, 1.78, 8.26, repro,
2008-05-30,-2.30, 0.58, -15.49, 2.20, 1.74, 8.23, repro,
2008-05-31,-2.71, -0.26, -15.28, 2.15, 1.69, 7.85, repro,
2008-06-01,-2.27, 2.07, -16.61, 2.19, 1.71, 7.98, repro,
2008-06-02,-2.29, 0.57, -9.09, 2.16, 1.69, 7.73, repro,
2008-06-03,-2.58, 1.14, -8.51, 2.30, 1.84, 8.68, repro,
2008-06-04,-3.52, 0.07, -5.07, 2.15, 1.68, 7.72, repro,
2008-06-05,-1.59, 0.91, -15.80, 2.21, 1.73, 7.95, repro,
2008-06-06,-2.65, 0.38, -3.70, 2.22, 1.72, 7.96, repro,
2008-06-07,-3.57, 1.25, -5.57, 2.29, 1.82, 8.16, repro,
2008-06-08,-1.32, 0.15, -11.78, 2.23, 1.75, 7.98, repro,
2008-06-09,-5.89, 0.94, -0.84, 2.30, 1.81, 8.21, repro,
2008-06-10,-2.54, 1.48, -10.13, 2.21, 1.69, 7.98, repro,
2008-06-11,-2.47, 0.43, -13.07, 2.26, 1.76, 8.02, repro,
2008-06-12,-0.65, 0.73, -5.22, 2.22, 1.77, 8.12, repro,
2008-06-13,-1.95, 2.46, -17.50, 2.22, 1.73, 8.03, repro,
2008-06-14,-0.86, 1.80, -14.47, 2.23, 1.76, 8.07, repro,
2008-06-15,-0.94, -0.86, -9.97, 2.32, 1.84, 8.48, repro,
2008-06-16,-1.95, 1.13, -10.73, 2.16, 1.70, 7.87, repro,
2008-06-17,-1.89, 1.69, -7.46, 2.20, 1.74, 8.01, repro,
2008-06-18,-2.48, 2.79, -15.26, 2.23, 1.77, 8.05, repro,
2008-06-19,-1.01, 0.76, -21.30, 2.17, 1.76, 8.01, repro,
2008-06-20,0.45, 0.55, -15.82, 2.17, 1.70, 7.92, repro,
2008-06-21,1.28, -5.59, 10.80, 2.18, 1.73, 8.02, repro,
2008-06-22,-2.27, 1.32, -16.89, 2.17, 1.69, 7.83, repro,
2008-06-23,-2.61, 2.30, -8.30, 2.25, 1.77, 8.14, repro,
2008-06-24,-1.97, 2.62, -13.83, 2.17, 1.71, 7.88, repro,
2008-06-25,-1.22, 2.36, -12.67, 2.16, 1.70, 7.82, repro,
2008-06-26,-1.32, 0.23, -3.50, 2.23, 1.83, 8.22, repro,
2008-06-27,-1.20, 0.03, -6.55, 2.17, 1.70, 7.86, repro,
2008-06-28,-3.68, -0.36, -10.52, 2.21, 1.75, 8.23, repro,
2008-06-29,-2.04, 3.34, -12.70, 2.19, 1.72, 8.00, repro,
2008-06-30,1.38, 1.10, -14.58, 2.18, 1.73, 8.02, repro,
2008-07-01,-1.31, 1.27, -10.30, 2.17, 1.70, 7.88, repro,
2008-07-02,-5.27, -0.49, -10.51, 2.20, 1.72, 7.93, repro,
2008-07-03,2.47, -0.23, -0.07, 2.26, 1.75, 8.11, repro,
2008-07-04,1.12, -0.22, -8.76, 2.22, 1.73, 8.13, repro,
2008-07-05,-2.12, 1.04, -8.54, 2.17, 1.69, 7.83, repro,
2008-07-06,-0.51, 0.10, 0.15, 2.18, 1.72, 7.91, repro,
2008-07-07,-0.87, 2.62, -6.78, 2.23, 1.79, 8.18, repro,
2008-07-08,-2.47, 0.08, -7.48, 2.16, 1.71, 7.88, repro,
2008-07-09,0.72, 0.60, -5.10, 2.19, 1.71, 7.93, repro,
2008-07-10,-3.68, 2.19, -7.03, 2.26, 1.80, 8.36, repro,
2008-07-11,-0.49, 2.14, -7.69, 2.35, 1.88, 8.40, repro,
2008-07-12,-1.32, 1.49, -8.67, 2.19, 1.70, 7.90, repro,
2008-07-13,-1.36, 0.22, -8.39, 2.17, 1.71, 7.86, repro,
2008-07-14,-1.10, -0.38, 2.80, 2.26, 1.75, 8.17, repro,
2008-07-15,-1.13, -1.28, -3.67, 2.21, 1.74, 8.12, repro,
2008-07-16,-0.99, 3.14, -12.14, 2.19, 1.72, 7.96, repro,
2008-07-17,-1.02, 1.40, -8.29, 2.19, 1.69, 7.79, repro,
2008-07-18,-1.48, 0.78, -13.05, 2.31, 1.79, 8.41, repro,
2008-07-19,-2.25, -0.36, -0.47, 2.22, 1.71, 8.00, repro,
2008-07-20,0.46, 2.01, -0.18, 2.20, 1.71, 7.94, repro,
2008-07-21,-2.84, 0.20, 4.90, 2.18, 1.72, 7.89, repro,
2008-07-22,1.01, -0.60, 3.49, 2.18, 1.71, 7.90, repro,
2008-07-23,-1.84, 1.33, -2.68, 2.27, 1.80, 8.31, repro,
2008-07-24,-2.86, 1.47, -3.83, 2.22, 1.74, 7.99, repro,
2008-07-25,-3.36, 0.73, 0.95, 2.24, 1.72, 7.93, repro,
2008-07-26,-2.48, -0.43, 6.83, 2.29, 1.85, 8.50, repro,
2008-07-27,-1.81, 1.76, -1.77, 2.28, 1.79, 8.33, repro,
2008-07-28,-3.22, -0.30, 9.20, 2.30, 1.81, 8.23, repro,
2008-07-29,-3.53, 0.33, 6.66, 2.26, 1.76, 8.38, repro,
2008-07-30,-3.01, 1.96, 2.50, 2.22, 1.70, 8.03, repro,
2008-07-31,-2.24, 1.29, 2.54, 2.16, 1.69, 7.77, repro,
2008-08-01,-0.95, -0.33, 8.50, 2.19, 1.71, 7.95, repro,
2008-08-02,-1.39, -1.10, 5.76, 2.26, 1.78, 8.34, repro,
2008-08-03,-1.59, 0.65, 1.46, 2.21, 1.76, 8.07, repro,
2008-08-04,-1.59, 2.03, -2.80, 2.20, 1.74, 7.97, repro,
2008-08-05,-2.50, 3.39, 1.10, 2.15, 1.69, 7.73, repro,
2008-08-06,-1.33, 1.37, 10.76, 2.25, 1.74, 8.14, repro,
2008-08-07,2.06, 0.62, 6.98, 2.35, 1.82, 8.44, repro,
2008-08-08,-1.83, -0.40, -2.18, 2.33, 1.81, 8.47, repro,
2008-08-09,-3.84, 1.65, -5.30, 2.25, 1.75, 8.23, repro,
2008-08-10,-1.79, 1.40, -3.68, 2.21, 1.72, 7.99, repro,
2008-08-11,-2.97, -0.16, 3.25, 2.26, 1.76, 8.28, repro,
2008-08-12,-2.34, 1.21, 7.15, 2.24, 1.73, 8.06, repro,
2008-08-13,-1.45, -0.24, 5.38, 2.34, 1.80, 8.65, repro,
2008-08-14,-0.17, 0.69, -0.93, 2.29, 1.79, 8.41, repro,
2008-08-15,-2.69, 0.57, 0.86, 2.28, 1.83, 8.51, repro,
2008-08-16,-2.78, 0.65, -3.59, 2.25, 1.77, 8.35, repro,
2008-08-17,-3.63, -0.22, 8.35, 2.29, 1.77, 8.32, repro,
2008-08-18,-1.84, -1.27, 8.37, 2.27, 1.78, 8.38, repro,
2008-08-19,-2.04, 0.50, 4.74, 2.29, 1.80, 8.59, repro,
2008-08-20,-1.64, 2.29, -2.70, 2.24, 1.77, 8.41, repro,
2008-08-21,-0.28, 0.18, 7.04, 2.21, 1.74, 8.11, repro,
2008-08-22,-0.05, -0.83, 4.19, 2.23, 1.75, 8.21, repro,
2008-08-23,-2.76, -1.07, 9.29, 2.24, 1.72, 8.05, repro,
2008-08-24,-0.91, -1.27, 0.89, 2.29, 1.79, 8.40, repro,
2008-08-25,-1.53, -2.52, -2.95, 2.34, 1.84, 8.95, repro,
2008-08-26,-0.88, 0.96, 7.71, 2.23, 1.74, 8.16, repro,
2008-08-27,-1.13, 1.04, 3.02, 2.25, 1.75, 8.16, repro,
2008-08-28,-4.07, 0.29, 0.05, 2.34, 1.82, 8.39, repro,
2008-08-29,-2.41, -0.36, 2.17, 2.26, 1.73, 8.05, repro,
2008-08-30,-2.68, 0.02, 13.37, 2.42, 1.83, 8.54, repro,
2008-08-31,-1.84, 0.42, 0.75, 2.30, 1.76, 8.18, repro,
2008-09-01,-1.52, 0.61, -1.65, 2.28, 1.79, 8.34, repro,
2008-09-02,-1.43, 1.63, -11.97, 2.30, 1.80, 8.31, repro,
2008-09-03,-1.65, 0.87, -0.74, 2.28, 1.75, 8.23, repro,
2008-09-04,-0.80, 1.25, -5.66, 2.42, 1.89, 8.99, repro,
2008-09-05,-1.83, 2.25, -3.97, 2.34, 1.83, 8.45, repro,
2008-09-06,-0.30, 0.98, -3.96, 2.39, 1.93, 8.77, repro,
2008-09-07,-1.26, 1.37, 0.80, 2.23, 1.73, 8.04, repro,
2008-09-08,-3.26, 0.39, 0.95, 2.25, 1.75, 8.17, repro,
2008-09-09,-1.12, 2.14, 1.44, 2.31, 1.75, 8.28, repro,
2008-09-10,-0.38, 0.12, 0.65, 2.43, 1.88, 8.98, repro,
2008-09-11,-2.13, 0.92, 3.60, 2.28, 1.76, 8.18, repro,
2008-09-12,-1.35, 1.61, 3.24, 2.22, 1.74, 8.07, repro,
2008-09-13,-1.82, 0.39, 9.45, 2.22, 1.72, 7.99, repro,
2008-09-14,-2.73, 2.02, 3.05, 2.24, 1.74, 8.11, repro,
2008-09-15,-2.19, 0.82, 2.95, 2.29, 1.79, 8.40, repro,
2008-09-16,-1.94, 0.42, 3.01, 2.26, 1.79, 8.28, repro,
2008-09-17,-3.22, 4.94, -0.87, 2.39, 1.88, 8.48, repro,
2008-09-18,-1.53, 1.19, 1.11, 2.19, 1.71, 7.98, repro,
2008-09-19,6.25, -2.77, -15.44, 2.22, 1.71, 8.00, repro,
2008-09-20,-0.72, 2.91, -5.86, 2.28, 1.81, 8.42, repro,
2008-09-21,-2.91, 1.40, 1.23, 2.24, 1.72, 8.07, repro,
2008-09-22,0.10, 2.10, 0.04, 2.24, 1.76, 8.25, repro,
2008-09-23,-2.00, 1.18, 6.69, 2.30, 1.80, 8.28, repro,